Flag for Paraguay Weather past 2 weeks in Asuncion, Paraguay

Now
75 °F

Passing clouds.


Feels Like: 78 °F
Forecast: 75 / 91 °F
Wind: 9 mph from Northeast

Location: Asuncion / Aeropuerto

Current Time: Aug 5, 2015 at 5:35:42 AM

Latest Report: Aug 5, 2015 at 5:00 AM


Visibility: N/A

Pressure: 29.83 "Hg

Humidity: 57%

Dew point: 59 °F

Location of AsuncionLocation

Historic Weather in Asuncion — Graph

°F

Asuncion temperature yesterday

Maximum temperature yesterday: 90 °F (at 2:00 PM)
Minimum temperature yesterday: 72 °F (at 12:00 AM)
Average temperature yesterday: 79 °F

Past Weeks' High & Low Weather Summary

 TemperatureHumidityPressure
High90 °F (Aug 1, 2:00 PM)100% (Jul 23, 5:00 PM)30.30 "Hg (Jul 23, 5:00 PM)
Low46 °F (Jul 21, 11:00 PM)31% (Aug 2, 4:00 PM)29.74 "Hg (Aug 2, 3:00 PM)
Average70 °F67%30.00 "Hg
* Reported Jul 21 4:00 AM — Aug 5 4:00 AM, Asuncion, Weather by CustomWeather, © 2015

Note: Actual official high and low records may vary slightly from our data, if they occured in-between our weather recording intervals... More about our weather records

Advertising

Asuncion weather history for previous 24 hours

 ConditionsComfort  
Time TempWeatherWind HumidityBarometerVisibility
4:00 AM
Wed, Aug 5
75 °FPartly cloudy.8 mph57%29.83 "HgN/A
3:00 AM77 °FPartly cloudy.10 mph51%29.83 "HgN/A
2:00 AM77 °FPassing clouds.8 mph54%29.83 "HgN/A
1:00 AM73 °FClear.8 mph65%29.86 "Hg10 mi
12:00 AM73 °FClear.3 mph74%29.89 "Hg10 mi
11:00 PM
Tue, Aug 4
77 °FClear.6 mph57%29.86 "Hg10 mi
10:00 PM75 °FClear.6 mph65%29.86 "Hg10 mi
9:00 PM72 °FClear.2 mph73%29.86 "Hg6 mi
8:00 PM75 °FClear.3 mph65%29.86 "Hg6 mi
7:00 PM75 °FClear.3 mph74%29.86 "Hg6 mi
6:00 PM79 °FClear.3 mph61%29.83 "Hg6 mi
5:00 PM84 °FClear.5 mph51%29.83 "Hg10 mi
4:00 PM88 °FSunny.7 mph43%29.83 "Hg10 mi
3:00 PM90 °FPassing clouds.9 mph38%29.83 "HgN/A
2:00 PM90 °FPassing clouds.10 mph38%29.86 "HgN/A
1:00 PM86 °FSunny.10 mph43%29.89 "Hg10 mi
12:00 PM86 °FPassing clouds.14 mph43%29.92 "HgN/A
11:00 AM86 °FPassing clouds.13 mph43%29.95 "HgN/A
10:00 AM82 °FPartly sunny.12 mph45%29.95 "HgN/A
9:30 AM77 °FBroken clouds.12 mph51%29.86 "HgN/A
9:00 AM81 °FBroken clouds.9 mph45%29.95 "HgN/A
8:30 AM79 °FBroken clouds.9 mph45%29.95 "HgN/A
8:00 AM77 °FPartly sunny.9 mph51%29.92 "HgN/A
7:30 AM77 °FPartly sunny.7 mph51%29.92 "HgN/A
7:00 AM77 °FPartly sunny.8 mph51%29.92 "HgN/A
6:00 AM77 °FBroken clouds.8 mph51%29.89 "HgN/A
5:00 AM75 °FPartly cloudy.8 mph57%29.89 "HgN/A
Weather by CustomWeather, © 2015

See weather overviewHow to use our weather pages